{"data":{"norad_id":49086,"intl_designator":"2021-075M","name":"ONEWEB-0297","alt_names":[],"object_type":"PAYLOAD","status":"ACTIVE","operator":null,"country":"UK","launch_date":"2021-08-21","launch_site_code":"TYMSC","launch_vehicle":null,"mission":null,"orbit_class":"UNKNOWN","rcs_meters":null,"size_class":null,"mass_kg":null,"dimensions":null,"purposes":["comms"],"wikipedia_slug":null,"has_3d_model":false,"image_url":null,"decayed_at":null,"tle_current":{"epoch":"2026-05-25T02:07:10.176672Z","epoch_age_seconds":67733,"freshness":"FRESH","line1":"1 49086U 21075M   26145.08831223 -.00000070  00000+0 -23127-3 0  9993","line2":"2 49086  87.8948 355.2731 0001856  89.1787 270.9554 13.12443433232152","mean_motion":13.12443433,"eccentricity":0.0001856,"inclination_deg":87.8948,"raan_deg":355.2731,"arg_perigee_deg":89.1787,"mean_anomaly_deg":270.9554,"bstar":-0.00023127,"rev_number":23215,"period_min":109.71901445752,"perigee_km":1212.3125722884,"apogee_km":1215.1306702086,"semimajor_km":7591.8586212485,"source":"CELESTRAK","updated_at":"2026-05-25T13:38:22.482911Z"}}}